TimeMDT,TemperatureF,Dew PointF,Humidity,Sea Level PressureIn,VisibilityMPH,Wind Direction,Wind SpeedMPH,Gust SpeedMPH,PrecipitationIn,Events,Conditions,WindDirDegrees,DateUTC
12:53 AM,60.1,34.0,38,29.98,10.0,Calm,Calm,-,N/A,,Clear,0,2012-09-23 06:53:00
1:53 AM,60.1,33.1,36,29.99,10.0,ESE,3.5,-,N/A,,Clear,110,2012-09-23 07:53:00
2:53 AM,53.1,34.0,48,30.00,10.0,SSW,9.2,-,N/A,,Clear,210,2012-09-23 08:53:00
3:53 AM,50.0,34.0,54,30.00,10.0,SW,5.8,-,N/A,,Clear,230,2012-09-23 09:53:00
4:53 AM,52.0,34.0,50,30.00,10.0,Calm,Calm,-,N/A,,Clear,0,2012-09-23 10:53:00
5:53 AM,46.9,34.0,61,30.03,10.0,West,3.5,-,N/A,,Clear,280,2012-09-23 11:53:00
6:53 AM,44.1,34.0,68,30.06,10.0,West,8.1,-,N/A,,Clear,260,2012-09-23 12:53:00
7:53 AM,45.0,34.0,65,30.09,10.0,West,4.6,-,N/A,,Clear,260,2012-09-23 13:53:00
8:53 AM,50.0,35.1,57,30.09,10.0,West,5.8,-,N/A,,Clear,270,2012-09-23 14:53:00
9:53 AM,55.0,35.1,47,30.10,10.0,West,5.8,-,N/A,,Clear,260,2012-09-23 15:53:00
10:53 AM,57.9,35.1,42,30.10,10.0,West,5.8,-,N/A,,Clear,260,2012-09-23 16:53:00
11:53 AM,61.0,35.1,38,30.09,10.0,West,4.6,-,N/A,,Clear,270,2012-09-23 17:53:00
12:53 PM,64.0,35.1,34,30.08,10.0,NW,3.5,-,N/A,,Clear,310,2012-09-23 18:53:00
1:53 PM,66.9,35.1,31,30.06,10.0,Calm,Calm,-,N/A,,Clear,0,2012-09-23 19:53:00
2:53 PM,68.0,36.0,31,30.06,10.0,Calm,Calm,-,N/A,,Clear,0,2012-09-23 20:53:00
3:53 PM,71.1,36.0,28,30.05,10.0,NE,4.6,-,N/A,,Clear,40,2012-09-23 21:53:00
4:53 PM,69.1,36.0,30,30.05,10.0,Calm,Calm,-,N/A,,Clear,0,2012-09-23 22:53:00
5:53 PM,70.0,37.0,30,30.06,10.0,Calm,Calm,-,N/A,,Clear,0,2012-09-23 23:53:00
6:53 PM,64.9,36.0,34,30.08,10.0,ENE,3.5,-,N/A,,Clear,60,2012-09-24 00:53:00
7:53 PM,62.1,36.0,38,30.09,10.0,Calm,Calm,-,N/A,,Clear,0,2012-09-24 01:53:00
8:53 PM,57.0,36.0,45,30.10,10.0,Calm,Calm,-,N/A,,Clear,0,2012-09-24 02:53:00
9:53 PM,55.9,35.1,45,30.09,10.0,Calm,Calm,-,N/A,,Clear,0,2012-09-24 03:53:00
10:53 PM,51.1,35.1,54,30.08,10.0,SW,8.1,-,N/A,,Clear,220,2012-09-24 04:53:00
11:53 PM,48.9,35.1,59,30.08,10.0,SSW,5.8,-,N/A,,Clear,210,2012-09-24 05:53:00